Flag for China Weather past 2 weeks in Dalian, Liaoning, China

Now
30 °F

Passing clouds.


Feels Like: 21 °F
Forecast: 23 / 36 °F
Wind: 10 mph from Northwest

Location: Dalian Airport

Current Time: Jan 31, 2015 at 3:13:24 PM

Latest Report: Jan 31, 2015 at 2:30 PM


Visibility: N/A

Pressure: 30.60 "Hg

Humidity: 43%

Dew point: 10 °F

Location of DalianLocation

Historic Weather in Dalian — Graph

°F

Dalian temperature yesterday

Maximum temperature yesterday: 28 °F (at 12:00 AM)
Minimum temperature yesterday: 19 °F (at 6:00 AM)
Average temperature yesterday: 24 °F

Past Weeks' High & Low Weather Summary

 TemperatureHumidityPressure
High43 °F (Jan 23, 12:30 PM)100% (Jan 18, 1:30 PM)30.69 "Hg (Jan 18, 1:30 PM)
Low14 °F (Jan 27, 7:30 AM)27% (Jan 17, 11:30 AM)29.95 "Hg (Jan 18, 1:30 PM)
Average28 °F66%30.34 "Hg
* Reported Jan 16 2:00 PM — Jan 31 2:00 PM, Dalian, Weather by CustomWeather, © 2014

Note: Actual official high and low records may vary slightly from our data, if they occured in-between our weather recording intervals... More about our weather records

Advertising

Dalian weather history for previous 24 hours

 ConditionsComfort  
Time TempWeatherWind HumidityBarometerVisibility
2:00 PM
Jan 31
30 °FPassing clouds.15 mph43%30.60 "HgN/A
1:30 PM30 °FSunny.15 mph40%30.60 "Hg10 mi
1:00 PM30 °FPassing clouds.13 mph40%30.63 "HgN/A
12:30 PM28 °FPassing clouds.13 mph43%30.66 "HgN/A
12:00 PM28 °FPassing clouds.8 mph43%30.66 "HgN/A
11:00 AM27 °FSunny.8 mph39%30.66 "Hg10 mi
10:30 AM28 °FPassing clouds.6 mph34%30.69 "HgN/A
10:00 AM27 °FPassing clouds.8 mph33%30.69 "HgN/A
9:30 AM27 °FPassing clouds.10 mph33%30.69 "HgN/A
9:00 AM25 °FPassing clouds.6 mph46%30.69 "HgN/A
8:30 AM23 °FSunny.1 mph54%30.69 "Hg10 mi
8:00 AM21 °FSunny.1 mph63%30.66 "Hg10 mi
7:30 AM16 °FSunny.1 mph67%30.66 "Hg10 mi
7:00 AM16 °FClear.No wind62%30.66 "Hg10 mi
6:30 AM18 °FClear.1 mph62%30.66 "Hg10 mi
6:00 AM16 °FClear.1 mph62%30.66 "Hg10 mi
5:30 AM18 °FClear.1 mph58%30.63 "Hg10 mi
5:00 AM19 °FPassing clouds.3 mph53%30.63 "HgN/A
4:30 AM19 °FPassing clouds.3 mph49%30.63 "HgN/A
4:00 AM19 °FPassing clouds.6 mph49%30.63 "HgN/A
3:30 AM19 °FPassing clouds.6 mph45%30.63 "HgN/A
3:00 AM19 °FClear.10 mph49%30.63 "Hg10 mi
2:30 AM19 °FClear.8 mph49%30.63 "Hg10 mi
2:00 AM19 °FClear.8 mph45%30.63 "Hg10 mi
1:30 AM19 °FClear.6 mph45%30.63 "Hg10 mi
1:00 AM21 °FPassing clouds.6 mph45%30.63 "HgN/A
12:30 AM21 °FClear.6 mph45%30.63 "Hg10 mi
12:00 AM21 °FPassing clouds.6 mph42%30.63 "HgN/A
11:30 PM
Jan 30
21 °FPassing clouds.8 mph42%30.63 "HgN/A
11:00 PM21 °FPassing clouds.8 mph45%30.63 "HgN/A
10:30 PM23 °FClear.8 mph42%30.63 "Hg10 mi
10:00 PM23 °FClear.10 mph42%30.63 "Hg10 mi
9:30 PM23 °FPassing clouds.10 mph42%30.63 "HgN/A
9:00 PM23 °FPassing clouds.8 mph42%30.60 "HgN/A
8:30 PM23 °FPassing clouds.8 mph42%30.60 "HgN/A
8:00 PM23 °FClear.10 mph46%30.57 "Hg10 mi
7:30 PM23 °FPassing clouds.10 mph42%30.57 "HgN/A
7:00 PM23 °FClear.8 mph42%30.57 "Hg10 mi
6:30 PM23 °FClear.10 mph42%30.54 "Hg10 mi
6:00 PM23 °FClear.10 mph42%30.54 "Hg10 mi
5:30 PM23 °FPassing clouds.10 mph42%30.54 "HgN/A
5:00 PM23 °FPassing clouds.13 mph36%30.54 "HgN/A
4:30 PM25 °FPassing clouds.13 mph39%30.51 "HgN/A
4:00 PM25 °FSunny.17 mph39%30.51 "Hg10 mi
3:30 PM27 °FPassing clouds.15 mph36%30.51 "HgN/A
3:00 PM27 °FSunny.15 mph36%30.51 "Hg10 mi
Weather by CustomWeather, © 2014

See weather overviewHow to use our weather pages